Location: Unspecified
(44.4377°N, 88.0525°W)
Time: 21:23:32
(UTC-05:00)

Cosmos 2058 - Visible Passes

Search period start: 27 March 2017 00:00
Search period end: 06 April 2017 00:00
Orbit: 564 x 585 km, 82.5° (Epoch: 26 March)

Date Brightness Start Highest point End Pass type
(mag) Time Alt. Az. Time Alt. Az. Time Alt. Az.
27 Mar 4.9 20:19:33 10° NE 20:21:24 13° ENE 20:21:29 13° ENE visible
27 Mar 4.0 21:54:40 10° NNW 21:57:44 44° NW 21:57:44 44° NW visible
28 Mar 4.6 20:22:19 10° NNE 20:24:58 16° ENE 20:25:21 16° ENE visible
28 Mar 4.1 21:58:12 10° NNW 22:01:37 41° WNW 22:01:37 41° WNW visible
29 Mar 4.3 20:25:19 10° NNE 20:28:30 21° ENE 20:29:16 20° E visible
29 Mar 4.4 22:01:48 10° NNW 22:05:32 33° W 22:05:32 33° W visible
30 Mar 3.9 20:28:27 10° NNE 20:32:01 27° ENE 20:33:13 23° ESE visible
30 Mar 4.8 22:05:27 10° NNW 22:08:51 25° W 22:09:29 24° WSW visible
31 Mar 3.6 20:31:41 10° N 20:35:31 35° ENE 20:37:13 24° ESE visible
31 Mar 5.2 22:09:13 10° NW 22:12:11 19° W 22:13:29 17° WSW visible
01 Apr 3.2 20:34:57 10° N 20:38:58 46° ENE 20:41:16 22° SE visible
01 Apr 5.6 22:13:10 10° NW 22:15:29 15° W 22:17:33 11° WSW visible
02 Apr 2.9 20:38:18 10° N 20:42:25 62° E 20:45:23 18° SSE visible
02 Apr 5.9 22:17:34 10° WNW 22:18:46 11° W 22:19:57 10° W visible
03 Apr 2.8 20:41:41 10° N 20:45:50 84° E 20:49:34 12° S visible
04 Apr 3.1 20:45:07 10° NNW 20:49:15 73° W 20:53:20 10° S visible
05 Apr 3.6 20:48:36 10° NNW 20:52:39 53° W 20:56:38 10° S visible
